Time,TemperatureF,DewpointF,PressureIn,WindDirection,WindDirectionDegrees,WindSpeedMPH,WindSpeedGustMPH,Humidity,HourlyPrecipIn,Conditions,Clouds,dailyrainin,SoftwareType,DateUTC
2013-01-11 00:03:00,17.0,15.0,29.63,NNE,24,17.0,-999.0,91,-99.99,,,-99.99,,2013-01-11 06:03:00,
2013-01-11 00:12:00,17.0,15.0,29.63,NNE,24,17.0,-999.0,91,-99.99,,,-99.99,,2013-01-11 06:12:00,
2013-01-11 00:22:00,17.0,15.0,29.63,North,11,17.0,-999.0,91,-99.99,,,-99.99,,2013-01-11 06:22:00,
2013-01-11 00:32:00,17.0,15.0,29.63,North,11,17.0,-999.0,91,-99.99,,,-99.99,,2013-01-11 06:32:00,
2013-01-11 00:42:00,17.0,15.0,29.63,North,11,17.0,-999.0,91,-99.99,,,-99.99,,2013-01-11 06:42:00,
2013-01-11 00:52:00,16.0,14.0,29.65,North,5,18.0,-999.0,91,-99.99,,,-99.99,,2013-01-11 06:52:00,
2013-01-11 01:02:00,16.0,14.0,29.65,NNE,31,18.0,-999.0,91,-99.99,,,-99.99,,2013-01-11 07:02:00,
2013-01-11 01:12:00,16.0,14.0,29.65,NNE,12,19.0,-999.0,91,-99.99,,,-99.99,,2013-01-11 07:12:00,
2013-01-11 01:22:00,16.0,14.0,29.65,NNE,12,19.0,-999.0,91,-99.99,,,-99.99,,2013-01-11 07:22:00,
2013-01-11 01:32:00,15.0,13.0,29.65,North,360,20.0,-999.0,91,-99.99,,,-99.99,,2013-01-11 07:32:00,
2013-01-11 01:42:00,15.0,13.0,29.66,North,355,19.0,-999.0,91,-99.99,,,-99.99,,2013-01-11 07:42:00,
2013-01-11 01:52:00,15.0,13.0,29.66,North,355,19.0,-999.0,91,-99.99,,,-99.99,,2013-01-11 07:52:00,
2013-01-11 02:02:00,15.0,13.0,29.67,North,360,18.0,-999.0,91,-99.99,,,-99.99,,2013-01-11 08:02:00,
2013-01-11 02:12:00,15.0,13.0,29.67,NNE,23,16.0,-999.0,91,-99.99,,,-99.99,,2013-01-11 08:12:00,
2013-01-11 02:22:00,15.0,13.0,29.67,NNE,23,16.0,-999.0,91,-99.99,,,-99.99,,2013-01-11 08:22:00,
2013-01-11 02:32:00,16.0,14.0,29.68,NNE,18,17.0,-999.0,92,-99.99,,,-99.99,,2013-01-11 08:32:00,
2013-01-11 02:42:00,16.0,14.0,29.68,NNE,18,17.0,-999.0,92,-99.99,,,-99.99,,2013-01-11 08:42:00,
2013-01-11 02:52:00,16.0,14.0,29.67,NNE,25,19.0,-999.0,92,-99.99,,,-99.99,,2013-01-11 08:52:00,
2013-01-11 03:02:00,15.0,13.0,29.67,North,355,17.0,-999.0,92,-99.99,,,-99.99,,2013-01-11 09:02:00,
2013-01-11 03:12:00,15.0,13.0,29.67,North,355,17.0,-999.0,92,-99.99,,,-99.99,,2013-01-11 09:12:00,
2013-01-11 03:22:00,15.0,13.0,29.69,North,360,18.0,-999.0,92,-99.99,,,-99.99,,2013-01-11 09:22:00,
2013-01-11 03:32:00,14.0,12.0,29.68,North,5,16.0,-999.0,92,-99.99,,,-99.99,,2013-01-11 09:32:00,
2013-01-11 03:42:00,14.0,12.0,29.68,North,5,16.0,-999.0,92,-99.99,,,-99.99,,2013-01-11 09:42:00,
2013-01-11 03:52:00,14.0,12.0,29.69,North,360,17.0,-999.0,92,-99.99,,,-99.99,,2013-01-11 09:52:00,
2013-01-11 04:02:00,14.0,12.0,29.69,North,360,17.0,-999.0,92,-99.99,,,-99.99,,2013-01-11 10:02:00,
2013-01-11 04:12:00,14.0,12.0,29.69,North,360,17.0,-999.0,92,-99.99,,,-99.99,,2013-01-11 10:12:00,
2013-01-11 04:22:00,14.0,12.0,29.70,NNE,13,12.0,-999.0,92,-99.99,,,-99.99,,2013-01-11 10:22:00,
2013-01-11 04:32:00,14.0,12.0,29.70,NNE,13,12.0,-999.0,92,-99.99,,,-99.99,,2013-01-11 10:32:00,
2013-01-11 04:42:00,14.0,12.0,29.70,NNE,13,12.0,-999.0,92,-99.99,,,-99.99,,2013-01-11 10:42:00,
2013-01-11 04:52:00,14.0,12.0,29.70,North,9,14.0,-999.0,92,-99.99,,,-99.99,,2013-01-11 10:52:00,
2013-01-11 05:03:00,14.0,12.0,29.71,NNE,14,11.0,-999.0,92,-99.99,,,-99.99,,2013-01-11 11:03:00,
2013-01-11 05:12:00,14.0,12.0,29.71,NNE,14,11.0,-999.0,92,-99.99,,,-99.99,,2013-01-11 11:12:00,
2013-01-11 05:22:00,14.0,12.0,29.71,North,5,13.0,-999.0,92,-99.99,,,-99.99,,2013-01-11 11:22:00,
2013-01-11 05:33:00,14.0,12.0,29.71,North,355,13.0,-999.0,92,-99.99,,,-99.99,,2013-01-11 11:33:00,
2013-01-11 05:42:00,14.0,12.0,29.71,North,355,13.0,-999.0,92,-99.99,,,-99.99,,2013-01-11 11:42:00,
2013-01-11 05:52:00,14.0,12.0,29.70,North,350,16.0,-999.0,92,-99.99,,,-99.99,,2013-01-11 11:52:00,
2013-01-11 06:03:00,13.0,11.0,29.72,North,355,14.0,-999.0,92,-99.99,,,-99.99,,2013-01-11 12:03:00,
2013-01-11 06:12:00,13.0,11.0,29.72,North,355,14.0,-999.0,92,-99.99,,,-99.99,,2013-01-11 12:12:00,
2013-01-11 06:22:00,13.0,11.0,29.72,North,349,15.0,-999.0,92,-99.99,,,-99.99,,2013-01-11 12:22:00,
2013-01-11 06:33:00,13.0,11.0,29.72,North,349,15.0,-999.0,92,-99.99,,,-99.99,,2013-01-11 12:33:00,
2013-01-11 06:42:00,13.0,11.0,29.72,North,349,15.0,-999.0,92,-99.99,,,-99.99,,2013-01-11 12:42:00,
2013-01-11 06:52:00,13.0,11.0,29.71,North,360,14.0,-999.0,92,-99.99,,,-99.99,,2013-01-11 12:52:00,
2013-01-11 07:03:00,12.0,10.0,29.72,North,9,12.0,-999.0,91,-99.99,,,-99.99,,2013-01-11 13:03:00,
2013-01-11 07:13:00,12.0,10.0,29.72,North,9,12.0,-999.0,91,-99.99,,,-99.99,,2013-01-11 13:13:00,
2013-01-11 07:22:00,11.0,9.0,29.72,North,355,12.0,-999.0,91,-99.99,,,-99.99,,2013-01-11 13:22:00,
2013-01-11 07:33:00,11.0,9.0,29.73,North,360,12.0,-999.0,91,-99.99,,,-99.99,,2013-01-11 13:33:00,
2013-01-11 07:42:00,11.0,9.0,29.73,North,360,12.0,-999.0,91,-99.99,,,-99.99,,2013-01-11 13:42:00,
2013-01-11 07:52:00,11.0,9.0,29.74,North,360,11.0,-999.0,91,-99.99,,,-99.99,,2013-01-11 13:52:00,
2013-01-11 08:03:00,12.0,10.0,29.73,North,5,11.0,-999.0,91,-99.99,,,-99.99,,2013-01-11 14:03:00,
2013-01-11 08:12:00,12.0,10.0,29.73,North,5,11.0,-999.0,91,-99.99,,,-99.99,,2013-01-11 14:12:00,
2013-01-11 08:23:00,11.0,9.0,29.74,NNE,30,11.0,-999.0,91,-99.99,,,-99.99,,2013-01-11 14:23:00,
2013-01-11 08:33:00,11.0,9.0,29.74,NNE,23,12.0,-999.0,91,-99.99,,,-99.99,,2013-01-11 14:33:00,
2013-01-11 08:43:00,11.0,9.0,29.75,NNE,13,13.0,-999.0,91,-99.99,,,-99.99,,2013-01-11 14:43:00,
2013-01-11 08:53:00,11.0,9.0,29.75,NNE,13,13.0,-999.0,91,-99.99,,,-99.99,,2013-01-11 14:53:00,
2013-01-11 09:03:00,10.0,8.0,29.74,NNE,14,11.0,-999.0,90,-99.99,,,-99.99,,2013-01-11 15:03:00,
2013-01-11 09:13:00,10.0,8.0,29.76,NE,35,10.0,-999.0,90,-99.99,,,-99.99,,2013-01-11 15:13:00,
2013-01-11 09:23:00,10.0,8.0,29.76,NE,35,10.0,-999.0,90,-99.99,,,-99.99,,2013-01-11 15:23:00,
2013-01-11 09:33:00,10.0,8.0,29.77,North,11,11.0,-999.0,91,-99.99,,,-99.99,,2013-01-11 15:33:00,
2013-01-11 09:43:00,10.0,8.0,29.77,North,11,11.0,-999.0,91,-99.99,,,-99.99,,2013-01-11 15:43:00,
2013-01-11 09:52:00,10.0,8.0,29.77,NNE,13,10.0,-999.0,90,-99.99,,,-99.99,,2013-01-11 15:52:00,
2013-01-11 10:03:00,10.0,8.0,29.77,NNE,28,13.0,-999.0,90,-99.99,,,-99.99,,2013-01-11 16:03:00,
2013-01-11 10:12:00,10.0,8.0,29.76,NNE,24,12.0,-999.0,90,-99.99,,,-99.99,,2013-01-11 16:12:00,
2013-01-11 10:22:00,10.0,8.0,29.76,NNE,24,12.0,-999.0,90,-99.99,,,-99.99,,2013-01-11 16:22:00,
2013-01-11 10:33:00,10.0,8.0,29.78,North,5,13.0,-999.0,90,-99.99,,,-99.99,,2013-01-11 16:33:00,
2013-01-11 10:42:00,10.0,8.0,29.78,North,5,13.0,-999.0,90,-99.99,,,-99.99,,2013-01-11 16:42:00,
2013-01-11 10:52:00,10.0,8.0,29.78,North,355,14.0,-999.0,90,-99.99,,,-99.99,,2013-01-11 16:52:00,
2013-01-11 11:03:00,10.0,8.0,29.78,North,360,12.0,-999.0,90,-99.99,,,-99.99,,2013-01-11 17:03:00,
2013-01-11 11:12:00,10.0,8.0,29.78,North,5,11.0,-999.0,90,-99.99,,,-99.99,,2013-01-11 17:12:00,
2013-01-11 11:22:00,10.0,8.0,29.78,North,5,11.0,-999.0,90,-99.99,,,-99.99,,2013-01-11 17:22:00,
2013-01-11 11:33:00,10.0,8.0,29.78,North,10,12.0,-999.0,90,-99.99,,,-99.99,,2013-01-11 17:33:00,
2013-01-11 11:43:00,10.0,8.0,29.78,North,10,12.0,-999.0,90,-99.99,,,-99.99,,2013-01-11 17:43:00,
2013-01-11 11:53:00,10.0,8.0,29.77,NNE,15,14.0,-999.0,90,-99.99,,,-99.99,,2013-01-11 17:53:00,
2013-01-11 12:03:00,10.0,8.0,29.78,North,355,14.0,-999.0,90,-99.99,,,-99.99,,2013-01-11 18:03:00,
2013-01-11 12:12:00,10.0,8.0,29.78,North,355,14.0,-999.0,90,-99.99,,,-99.99,,2013-01-11 18:12:00,
2013-01-11 12:23:00,10.0,8.0,29.76,NNE,12,15.0,-999.0,90,-99.99,,,-99.99,,2013-01-11 18:23:00,
2013-01-11 12:33:00,9.0,6.0,29.77,North,355,15.0,-999.0,89,-99.99,,,-99.99,,2013-01-11 18:33:00,
2013-01-11 12:43:00,9.0,6.0,29.77,North,355,15.0,-999.0,89,-99.99,,,-99.99,,2013-01-11 18:43:00,
2013-01-11 12:53:00,9.0,6.0,29.77,North,10,16.0,-999.0,89,-99.99,,,-99.99,,2013-01-11 18:53:00,
2013-01-11 13:02:00,8.0,6.0,29.78,NNE,24,14.0,-999.0,90,-99.99,,,-99.99,,2013-01-11 19:02:00,
2013-01-11 13:12:00,8.0,6.0,29.78,NNE,24,14.0,-999.0,90,-99.99,,,-99.99,,2013-01-11 19:12:00,
2013-01-11 13:22:00,8.0,6.0,29.79,North,360,15.0,-999.0,90,-99.99,,,-99.99,,2013-01-11 19:22:00,
2013-01-11 13:32:00,8.0,5.0,29.80,NNW,337,13.0,-999.0,89,-99.99,,,-99.99,,2013-01-11 19:32:00,
2013-01-11 13:43:00,8.0,5.0,29.80,NNW,337,13.0,-999.0,89,-99.99,,,-99.99,,2013-01-11 19:43:00,
2013-01-11 13:53:00,8.0,5.0,29.80,North,5,13.0,-999.0,89,-99.99,,,-99.99,,2013-01-11 19:53:00,
2013-01-11 14:03:00,7.0,4.0,29.80,NNW,345,15.0,-999.0,89,-99.99,,,-99.99,,2013-01-11 20:03:00,
2013-01-11 14:12:00,7.0,4.0,29.80,NNW,345,15.0,-999.0,89,-99.99,,,-99.99,,2013-01-11 20:12:00,
2013-01-11 14:22:00,7.0,4.0,29.79,North,350,18.0,-999.0,89,-99.99,,,-99.99,,2013-01-11 20:22:00,
2013-01-11 14:33:00,7.0,4.0,29.79,North,360,20.0,-999.0,89,-99.99,,,-99.99,,2013-01-11 20:33:00,
2013-01-11 14:43:00,7.0,4.0,29.79,North,360,20.0,-999.0,89,-99.99,,,-99.99,,2013-01-11 20:43:00,
2013-01-11 14:52:00,7.0,4.0,29.79,North,360,20.0,-999.0,89,-99.99,,,-99.99,,2013-01-11 20:52:00,
2013-01-11 15:03:00,7.0,4.0,29.80,North,9,18.0,-999.0,89,-99.99,,,-99.99,,2013-01-11 21:03:00,
2013-01-11 15:12:00,7.0,4.0,29.80,North,9,18.0,-999.0,89,-99.99,,,-99.99,,2013-01-11 21:12:00,
2013-01-11 15:23:00,7.0,4.0,29.80,North,360,18.0,-999.0,89,-99.99,,,-99.99,,2013-01-11 21:23:00,
2013-01-11 15:33:00,6.0,3.0,29.80,North,360,19.0,-999.0,89,-99.99,,,-99.99,,2013-01-11 21:33:00,
2013-01-11 15:42:00,6.0,3.0,29.80,North,360,19.0,-999.0,89,-99.99,,,-99.99,,2013-01-11 21:42:00,
2013-01-11 15:52:00,6.0,3.0,29.82,NNW,346,18.0,-999.0,89,-99.99,,,-99.99,,2013-01-11 21:52:00,
2013-01-11 16:02:00,6.0,3.0,29.82,NNW,346,18.0,-999.0,89,-99.99,,,-99.99,,2013-01-11 22:02:00,
2013-01-11 16:12:00,6.0,3.0,29.82,NNW,346,18.0,-999.0,89,-99.99,,,-99.99,,2013-01-11 22:12:00,
2013-01-11 16:22:00,6.0,3.0,29.83,North,5,18.0,-999.0,89,-99.99,,,-99.99,,2013-01-11 22:22:00,
2013-01-11 16:33:00,6.0,3.0,29.84,North,360,18.0,-999.0,89,-99.99,,,-99.99,,2013-01-11 22:33:00,
2013-01-11 16:42:00,6.0,3.0,29.84,North,360,18.0,-999.0,89,-99.99,,,-99.99,,2013-01-11 22:42:00,
2013-01-11 16:52:00,6.0,3.0,29.84,North,355,17.0,-999.0,89,-99.99,,,-99.99,,2013-01-11 22:52:00,
2013-01-11 17:02:00,6.0,3.0,29.84,North,360,19.0,-999.0,89,-99.99,,,-99.99,,2013-01-11 23:02:00,
2013-01-11 17:13:00,6.0,3.0,29.84,North,360,19.0,-999.0,89,-99.99,,,-99.99,,2013-01-11 23:13:00,
2013-01-11 17:22:00,6.0,3.0,29.85,NNW,339,15.0,-999.0,89,-99.99,,,-99.99,,2013-01-11 23:22:00,
2013-01-11 17:32:00,5.0,2.0,29.85,NNW,338,15.0,-999.0,89,-99.99,,,-99.99,,2013-01-11 23:32:00,
2013-01-11 17:43:00,5.0,2.0,29.85,NNW,338,15.0,-999.0,89,-99.99,,,-99.99,,2013-01-11 23:43:00,
2013-01-11 17:53:00,5.0,2.0,29.85,North,360,17.0,-999.0,89,-99.99,,,-99.99,,2013-01-11 23:53:00,
2013-01-11 18:02:00,5.0,2.0,29.86,North,360,17.0,-999.0,89,-99.99,,,-99.99,,2013-01-12 00:02:00,
2013-01-11 18:12:00,5.0,2.0,29.87,North,360,19.0,-999.0,89,-99.99,,,-99.99,,2013-01-12 00:12:00,
2013-01-11 18:23:00,5.0,2.0,29.87,North,360,19.0,-999.0,89,-99.99,,,-99.99,,2013-01-12 00:23:00,